Погода в Гренобле

Франция     45°11′15″N   5°43′11″E
темп.,
°C
ветер,
м/с
пор.,
м/с
влажн.,
%
обл.,
%
осадки,
мм/ч
давл.,
гПа
погр.,
м
11 апреля, вс
вс1123:00+7зюз1180100 0.0 101413
02:00+6ююз1182100 0.0 101447
05:00+6юз1187100 0.0 101325
08:00+6ююв138844 0.0 101393
11:00+13ююз34535 0.0 1011976
14:00+17юз354083 0.1 10102281
17:00+14з245582 0.8 10111238
20:00+9сз239390 2.9 1014181
12 апреля, пн
пн1223:00+4зсз3498100 3.9 1018513
02:00+1сз12100100 14.7 102269
05:000сз22100100 7.2 1023101
08:000сз12100100 10.6 1024148
11:00+1сз23100100 1.3 1024213
14:00+1ссз23100100 3.0 1024238
17:00+2с3699100 2.6 1024495
20:00+1с379422 3.3 1025266
13 апреля, вт
вт1323:00−1с269596 0.1 1027302
02:00−3с259874 0.1 1028150
05:00−1с3792100 0.0 1027549
08:00−1с369397 0.1 1028629
11:00+1с478796 0.1 10281049
14:00+3ссв378077 0.3 10271493
17:00+5ссв377638 0.1 10251583
20:00+1с22945 0.1 102637
14 апреля, ср
ср1423:00−4св119711 0.0 102916
02:00−5всв119739 0.0 102938
05:00−3всв139585 0.0 1028186
08:00−1в129097 0.0 1027133
11:00+1с2381100 0.1 1026887
14:00+3ссв247787 0.1 10251073
17:00+6ссв356757 0.1 10221526
20:00+1с21902 0.1 102319
15 апреля, чт
чт1523:00−3всв11932 0.0 102513
02:00−5вюв11945 0.0 102614
05:00−5вюв11935 0.0 102515
08:00−3всв118722 0.0 102581
11:00+3с237787 0.0 1024853
14:00+6с236037 0.1 10221416
17:00+7с344921 0.0 10201701
20:00+1с11791 0.0 102111